Find Starlink 3546

NORAD ID: 51718 Int'l Des: 2022-016 Owner: SPXS Country: US Constellation: starlink operational
LEOCIRCULAR

現在のビュー

3D地球を読み込み中...

About Starlink 3546

Starlink 3546 (NORAD 51718) is a starlink constellation satellite (v1.5) launched Feb 21, 2022 by SPXS of US. It operates in LEO, CIRCULAR orbit with a mass of 297.00 kg.

Starlink 3546について

説明を読み込み中...

次回通過

Passes for default location (London). Set your location on the main map for personalized predictions.

高度履歴

Loading altitude history...

軌道要素

1 51718U 22016E 26170.41653018 .00018787 00000-0 87618-3 0 9991
2 51718 53.2080 223.4955 0001633 296.0568 64.0261 15.19914511240036
Epoch: Jun 19, 2026 • Age: 15 hours

現在のステータス

高度 523.1 km
速度 7.60 km/s
衛星直下点 -52.27°S, 143.09°W
打ち上げ日 Feb 21, 2022
運用期間 4.3 years
タイプ internet

技術仕様

分類 Payload
質量 297.00 kg
乾燥質量 275.00 kg
総質量 297.00 kg
長さ 0.20 m
直径 2.80 m
スパン 9.00 m
形状 Box + pan
製造者 SPXS
バスタイプ Starlink
フェーズステータス In Orbit
所有者/国 SPXS/US

Most Searched